When you browse on this site, cookies collect data to enhance your experience and personalize the content and advertising you see.
Visit our Privacy Policy to learn more. By continuing to use the site, you agree to this use of cookies and data.
  • In Sweden
  • List of Countries
  • For 7 days
  • Water Temperature
  • Weather Map
  • Weather Widgets
  • user-avatar
    Login

    Hourly Weather Polkowice

    Today, 10 April, Friday

    Time Temperature Precipitation Wind Pressure Humidity
    00:00 +8°C° 0 mm 2 mps 753 mmHg 79%
    01:00 +7°C° 0 mm 2 mps 754 mmHg 79%
    02:00 +7°C° 0 mm 1 mps 754 mmHg 76%
    03:00 +7°C° 0 mm 1 mps 754 mmHg 72%
    04:00 +6°C° 0 mm 1 mps 754 mmHg 68%
    05:00 +7°C° 0 mm 1 mps 754 mmHg 65%
    06:00 +7°C° 0 mm 1 mps 754 mmHg 62%
    07:00 +8°C° 0 mm 1 mps 754 mmHg 58%
    08:00 +9°C° 0 mm 1 mps 754 mmHg 52%
    09:00 +10°C° 0 mm 2 mps 754 mmHg 46%
    10:00 +12°C° 0 mm 2 mps 754 mmHg 40%
    11:00 +13°C° 0 mm 2 mps 754 mmHg 38%
    12:00 +14°C° 0 mm 1 mps 754 mmHg 35%
    13:00 +15°C° 0 mm 1 mps 754 mmHg 33%
    14:00 +15°C° 0 mm 1 mps 753 mmHg 33%
    15:00 +15°C° 0 mm 2 mps 753 mmHg 34%
    16:00 +15°C° 0 mm 2 mps 752 mmHg 34%
    17:00 +13°C° 0 mm 2 mps 753 mmHg 40%
    18:00 +12°C° 0 mm 2 mps 753 mmHg 47%
    19:00 +9°C° 0 mm 2 mps 753 mmHg 53%
    20:00 +9°C° 0 mm 1 mps 753 mmHg 57%
    21:00 +8°C° 0 mm 1 mps 753 mmHg 60%
    22:00 +7°C° 0 mm 1 mps 753 mmHg 63%
    23:00 +7°C° 0 mm 1 mps 753 mmHg 65%

    Tomorrow, 11 April, Saturday

    Time Temperature Precipitation Wind Pressure Humidity
    00:00 +6°C° 0 mm 1 mps 753 mmHg 66%
    01:00 +5°C° 0 mm 0 mps 754 mmHg 67%
    02:00 +4°C° 0 mm 0 mps 754 mmHg 68%
    03:00 +5°C° 0 mm 1 mps 754 mmHg 69%
    04:00 +5°C° 0 mm 1 mps 754 mmHg 70%
    05:00 +6°C° 0 mm 1 mps 754 mmHg 68%
    06:00 +6°C° 0 mm 1 mps 754 mmHg 66%
    07:00 +7°C° 0 mm 1 mps 754 mmHg 64%
    08:00 +9°C° 0 mm 1 mps 755 mmHg 58%
    09:00 +11°C° 0 mm 1 mps 755 mmHg 53%
    10:00 +13°C° 0 mm 1 mps 755 mmHg 48%
    11:00 +14°C° 0 mm 1 mps 755 mmHg 45%
    12:00 +15°C° 0 mm 1 mps 755 mmHg 42%
    13:00 +16°C° 0 mm 1 mps 755 mmHg 39%
    14:00 +15°C° 0 mm 1 mps 754 mmHg 39%
    15:00 +15°C° 0 mm 1 mps 754 mmHg 39%
    16:00 +15°C° 0 mm 1 mps 753 mmHg 39%
    17:00 +13°C° 0 mm 1 mps 753 mmHg 44%
    18:00 +12°C° 0 mm 1 mps 753 mmHg 49%
    19:00 +10°C° 0 mm 1 mps 753 mmHg 55%
    20:00 +10°C° 0 mm 1 mps 753 mmHg 57%
    21:00 +9°C° 0 mm 1 mps 753 mmHg 59%
    22:00 +8°C° 0 mm 1 mps 753 mmHg 61%
    23:00 +8°C° 0 mm 1 mps 753 mmHg 63%

    Day after tomorrow, 12 April, Sunday

    Time Temperature Precipitation Wind Pressure Humidity
    00:00 +7°C° 0 mm 1 mps 752 mmHg 65%
    01:00 +7°C° 0 mm 1 mps 752 mmHg 67%
    02:00 +7°C° 0 mm 1 mps 752 mmHg 69%
    03:00 +6°C° 0 mm 1 mps 751 mmHg 71%
    04:00 +6°C° 0 mm 1 mps 751 mmHg 73%
    05:00 +7°C° 0 mm 1 mps 751 mmHg 71%
    06:00 +8°C° 0 mm 1 mps 751 mmHg 68%
    07:00 +9°C° 0 mm 1 mps 751 mmHg 66%
    08:00 +11°C° 0 mm 1 mps 750 mmHg 59%
    09:00 +14°C° 0 mm 1 mps 750 mmHg 52%
    10:00 +16°C° 0 mm 2 mps 750 mmHg 45%
    11:00 +17°C° 0 mm 2 mps 749 mmHg 42%
    12:00 +18°C° 0 mm 2 mps 748 mmHg 38%
    13:00 +20°C° 0 mm 2 mps 748 mmHg 35%
    14:00 +20°C° 0 mm 2 mps 747 mmHg 35%
    15:00 +20°C° 0 mm 2 mps 747 mmHg 35%
    16:00 +20°C° 0 mm 2 mps 746 mmHg 35%
    17:00 +18°C° 0 mm 2 mps 745 mmHg 42%
    18:00 +16°C° 0 mm 2 mps 745 mmHg 48%
    19:00 +14°C° 0 mm 2 mps 744 mmHg 55%
    20:00 +13°C° 0 mm 2 mps 744 mmHg 57%
    21:00 +13°C° 0 mm 2 mps 744 mmHg 60%
    22:00 +12°C° 0 mm 2 mps 744 mmHg 62%
    23:00 +12°C° 0 mm 2 mps 744 mmHg 66%

    13 April, Monday

    Time Temperature Precipitation Wind Pressure Humidity
    00:00 +10°C° 0 mm 2 mps 743 mmHg 69%
    01:00 +10°C° 0 mm 2 mps 743 mmHg 72%
    02:00 +9°C° 0 mm 2 mps 743 mmHg 75%
    03:00 +9°C° 0 mm 2 mps 742 mmHg 78%
    04:00 +10°C° 0 mm 1 mps 742 mmHg 81%
    05:00 +10°C° 0 mm 2 mps 742 mmHg 78%
    06:00 +12°C° 0 mm 2 mps 742 mmHg 75%
    07:00 +13°C° 0 mm 2 mps 741 mmHg 73%
    08:00 +14°C° 0 mm 3 mps 741 mmHg 67%
    09:00 +15°C° 0 mm 4 mps 741 mmHg 61%
    10:00 +18°C° 0 mm 4 mps 741 mmHg 55%
    11:00 +17°C° 0.2 mm 5 mps 741 mmHg 56%
    12:00 +17°C° 0.2 mm 5 mps 740 mmHg 56%
    13:00 +17°C° 0.2 mm 6 mps 740 mmHg 57%
    14:00 +16°C° 0.5 mm 6 mps 740 mmHg 61%
    15:00 +15°C° 0.5 mm 5 mps 740 mmHg 64%
    16:00 +15°C° 0.5 mm 5 mps 740 mmHg 68%
    17:00 +12°C° 0.4 mm 5 mps 741 mmHg 72%
    18:00 +9°C° 0.4 mm 5 mps 741 mmHg 77%
    19:00 +7°C° 0.4 mm 5 mps 742 mmHg 81%
    20:00 +6°C° 0 mm 5 mps 743 mmHg 79%
    21:00 +5°C° 0 mm 5 mps 744 mmHg 77%
    22:00 +3°C° 0 mm 5 mps 745 mmHg 75%
    23:00 +3°C° 0 mm 4 mps 745 mmHg 75%

    14 April, Tuesday

    Time Temperature Precipitation Wind Pressure Humidity
    00:00 +2°C° 0 mm 3 mps 746 mmHg 74%
    01:00 +2°C° 0 mm 2 mps 746 mmHg 73%
    02:00 0°C° 0 mm 3 mps 747 mmHg 75%
    03:00 -1°C° 0 mm 3 mps 747 mmHg 77%
    04:00 -1°C° 0 mm 3 mps 747 mmHg 79%
    05:00 0°C° 0 mm 3 mps 748 mmHg 74%
    06:00 0°C° 0 mm 3 mps 748 mmHg 69%
    07:00 +1°C° 0 mm 3 mps 748 mmHg 64%
    08:00 +3°C° 0 mm 3 mps 748 mmHg 56%
    09:00 +4°C° 0 mm 4 mps 749 mmHg 48%
    10:00 +5°C° 0 mm 5 mps 749 mmHg 41%
    11:00 +6°C° 0 mm 4 mps 749 mmHg 38%
    12:00 +7°C° 0 mm 4 mps 749 mmHg 36%
    13:00 +7°C° 0 mm 4 mps 749 mmHg 34%
    14:00 +7°C° 0 mm 4 mps 749 mmHg 34%
    15:00 +8°C° 0 mm 3 mps 749 mmHg 34%
    16:00 +9°C° 0 mm 3 mps 748 mmHg 33%
    17:00 +7°C° 0 mm 3 mps 749 mmHg 38%
    18:00 +5°C° 0 mm 2 mps 749 mmHg 42%
    19:00 +4°C° 0 mm 2 mps 749 mmHg 46%
    20:00 +3°C° 0 mm 2 mps 750 mmHg 48%
    21:00 +3°C° 0 mm 1 mps 750 mmHg 49%
    22:00 +2°C° 0 mm 1 mps 750 mmHg 51%
    23:00 +2°C° 0 mm 1 mps 750 mmHg 52%

    15 April, Wednesday

    Time Temperature Precipitation Wind Pressure Humidity
    00:00 +1°C° 0 mm 1 mps 750 mmHg 53%
    01:00 -1°C° 0 mm 0 mps 750 mmHg 54%
    02:00 -1°C° 0 mm 0 mps 750 mmHg 54%
    03:00 -1°C° 0 mm 0 mps 750 mmHg 54%
    04:00 -1°C° 0 mm 0 mps 750 mmHg 55%
    05:00 0°C° 0 mm 0 mps 750 mmHg 51%
    06:00 +2°C° 0 mm 0 mps 750 mmHg 48%
    07:00 +3°C° 0 mm 0 mps 751 mmHg 45%
    08:00 +6°C° 0 mm 1 mps 751 mmHg 41%
    09:00 +8°C° 0 mm 1 mps 751 mmHg 37%
    10:00 +10°C° 0 mm 1 mps 751 mmHg 33%
    11:00 +10°C° 0 mm 1 mps 751 mmHg 31%
    12:00 +11°C° 0 mm 1 mps 750 mmHg 29%
    13:00 +12°C° 0 mm 2 mps 750 mmHg 27%
    14:00 +12°C° 0 mm 2 mps 750 mmHg 28%
    15:00 +12°C° 0 mm 2 mps 750 mmHg 30%
    16:00 +11°C° 0 mm 3 mps 749 mmHg 31%
    17:00 +9°C° 0 mm 2 mps 749 mmHg 37%
    18:00 +8°C° 0 mm 2 mps 749 mmHg 43%
    19:00 +6°C° 0 mm 2 mps 749 mmHg 49%
    20:00 +5°C° 0 mm 2 mps 749 mmHg 50%
    21:00 +5°C° 0 mm 2 mps 750 mmHg 51%
    22:00 +4°C° 0 mm 2 mps 750 mmHg 52%
    23:00 +4°C° 0 mm 2 mps 750 mmHg 54%
    Show more